AO-07 1 07530U 74089B 23040.82808935 -.00000035 00000-0 71795-4 0 9997 2 07530 101.9361 26.7023 0012043 308.3227 123.0409 12.53660927207215 UO-11 1 14781U 84021B 23040.67499649 .00003472 00000-0 42030-3 0 9997 2 14781 97.6442 22.6993 0006545 259.5566 100.4911 14.84264808 75221 AO-16 1 20439U 90005D 23040.82145137 .00000488 00000-0 19504-3 0 9994 2 20439 98.8733 27.8589 0010137 211.9203 218.7580 14.33007838726662 LO-19 1 20442U 90005G 23040.83273978 .00000472 00000-0 18855-3 0 9995 2 20442 98.8286 14.7399 0011518 187.0237 173.0787 14.33161108727100 HUBBLE 1 20580U 90037B 23040.34387698 .00006867 00000-0 38037-3 0 9992 2 20580 28.4711 37.8593 0002525 82.9762 49.6324 15.11885630602085 MET-2/21 1 22782U 93055A 23040.87832258 .00000060 00000-0 40585-4 0 9997 2 22782 82.5507 185.7987 0022983 43.6644 71.0120 13.83872638486846 AO-27 1 22825U 93061C 23040.81813243 .00000305 00000-0 13535-3 0 9995 2 22825 98.8604 81.5425 0009484 81.3448 278.8808 14.30242598532081 IO-26 1 22826U 93061D 23040.85337481 .00000336 00000-0 14642-3 0 9999 2 22826 98.8549 81.4452 0009936 68.8463 291.3780 14.30596094532350 FO-29 1 24278U 96046B 23040.71520084 .00000085 00000-0 12150-3 0 9999 2 24278 98.5180 36.7073 0350780 27.7698 334.1693 13.53130883307693 NOAA-15 1 25338U 98030A 23040.90135534 .00000382 00000-0 17740-3 0 9995 2 25338 98.6216 72.0449 0009727 330.2312 29.8313 14.26239311287117 GO-32 1 25397U 98043D 23040.81810861 .00000298 00000-0 15009-3 0 9999 2 25397 98.8518 357.2993 0002081 117.6763 242.4626 14.23817246277209 ISS 1 25544U 98067A 23040.99359970 .00021153 00000-0 38013-3 0 9990 2 25544 51.6429 238.5437 0008203 333.2748 182.2231 15.49783246382061 NO-44 1 26931U 01043C 23040.70688765 .00000563 00000-0 24620-3 0 9996 2 26931 67.0511 165.9652 0005972 282.7527 77.2907 14.30815700115348 SO-50 1 27607U 02058C 23040.94692314 .00002973 00000-0 42238-3 0 9997 2 27607 64.5558 294.8792 0078423 249.4304 109.8373 14.76721238 83641 CO-55 1 27844U 03031E 23040.81562399 .00000768 00000-0 36287-3 0 9994 2 27844 98.6803 49.9354 0010684 130.8170 229.3936 14.22619306 17628 CO-57 1 27848U 03031J 23040.85405021 .00000678 00000-0 32568-3 0 9998 2 27848 98.6843 50.4335 0010366 144.3127 215.8746 14.22152778 17401 RS-22 1 27939U 03042A 23040.80564160 .00002541 00000-0 45302-3 0 9997 2 27939 98.2190 187.0052 0012824 174.5230 185.6138 14.67852303 35855 NOAA-18 1 28654U 05018A 23040.88194660 .00000394 00000-0 23589-3 0 9996 2 28654 98.9230 115.8360 0014456 24.2655 335.9195 14.12858237913599 CO-58 1 28895U 05043F 23040.65583900 .00003824 00000-0 72123-3 0 9994 2 28895 98.1327 173.9039 0017361 113.1976 247.1058 14.64976127922133 CO-65 1 32785U 08021C 23040.74512565 .00006824 00000-0 69670-3 0 9991 2 32785 97.6911 9.6713 0013043 158.3573 201.8199 14.90866191801890 AAUSAT2 1 32788U 08021F 23039.93757029 .00016824 00000-0 13405-2 0 9994 2 32788 97.5549 22.5814 0009966 63.0143 297.2097 15.00378089803950 DO-64 1 32789U 08021G 23040.80244834 .00053674 00000-0 23031-2 0 9998 2 32789 97.3200 64.3654 0007475 198.0838 162.0134 15.22501032807913 CO-66 1 32791U 08021J 23040.70109484 .00010305 00000-0 95580-3 0 9994 2 32791 97.6422 14.9083 0014310 114.7997 245.4714 14.94544513802609 RS-30 1 32953U 08025A 23040.56028665 .00000024 00000-0 10000-3 0 9994 2 32953 82.5021 36.4675 0020557 102.0277 258.3107 12.43118615667794 PRISM 1 33493U 09002B 23040.72559733 .00017546 00000-0 13040-2 0 9996 2 33493 98.2508 46.6075 0019715 110.4288 249.9054 15.02918372764571 NOAA-19 1 33591U 09005A 23040.83981881 .00000366 00000-0 22249-3 0 9997 2 33591 99.1195 84.6245 0013119 239.0482 120.9401 14.12683823721701 SRMSAT 1 37841U 11058D 23040.90767168 .00000646 00000-0 21016-3 0 9990 2 37841 19.9712 259.5327 0011894 73.2010 315.0605 14.10828988584818 HRBE 1 37855U 11061F 23040.94005206 .00031904 00000-0 12005-2 0 9999 2 37855 101.7086 292.2621 0137371 67.8403 293.7329 15.18632610617199 RS-40 1 38735U 12041C 23040.61630136 .00000014 00000-0 30080-4 0 9999 2 38735 82.4781 117.6550 0017100 210.8002 149.2083 12.42590659477979 ZACUBE-1 1 39417U 13066B 23040.82938530 .00008911 00000-0 10565-2 0 9995 2 39417 97.6698 7.1962 0055897 348.0345 11.9538 14.83616682498303 Delfi-N3xt 1 39428U 13066N 23040.84341316 .00008794 00000-0 13092-2 0 9996 2 39428 97.8302 330.3819 0112312 237.7626 121.2657 14.70896822493408 GOMX-1 1 39430U 13066Q 23040.77447643 .00003043 00000-0 53993-3 0 9998 2 39430 97.7949 299.2951 0148284 16.6542 343.9477 14.60975604490938 LO-74 1 39440U 13066AA 23040.83412633 .00007223 00000-0 95383-3 0 9990 2 39440 97.7590 353.9617 0079061 81.3810 279.6349 14.78116377495336 AO-73 1 39444U 13066AE 23040.85829689 .00011251 00000-0 12901-2 0 9999 2 39444 97.6570 9.6842 0053930 334.5011 25.3545 14.84997049496734 SPROUT 1 39770U 14029E 23040.88638545 .00018383 00000-0 16560-2 0 9991 2 39770 97.9574 165.2313 0009245 15.9678 344.1979 14.95607397473086 DTUSAT-2 1 40030U 14033W 23040.82248548 .00009399 00000-0 94431-3 0 9992 2 40030 97.9577 339.9635 0011151 1.8791 358.2467 14.91436518469002 EO-80 1 40032U 14033Y 23040.79823185 .00008540 00000-0 85883-3 0 9994 2 40032 97.9581 339.9561 0011178 3.5773 356.5523 14.91427951468975 HODOYOSHI-1 1 40299U 14070B 23040.89930867 .00012513 00000-0 43013-3 0 9991 2 40299 97.2136 107.0516 0011851 20.1667 94.9539 15.30162473459326 FIREBIRD FU3 1 40377U 15003B 23040.83084041 .00084524 00000-0 16966-2 0 9990 2 40377 99.0776 325.3724 0071674 295.4306 63.9530 15.43576445444823 FIREBIRD FU4 1 40378U 15003C 23040.90499242 .00086868 00000-0 17360-2 0 9994 2 40378 99.0788 325.7451 0071518 294.6254 64.7550 15.43705285444847 GRIFEX 1 40379U 15003D 23040.68392586 .00047062 00000-0 13592-2 0 9999 2 40379 99.0831 307.8726 0099355 348.9730 10.9327 15.30658490443805 XW-2A 1 40903U 15049E 23040.95164671 .00122067 00000-0 88950-3 0 9994 2 40903 97.1412 106.6810 0005273 310.9097 174.7236 15.72917565416290 XW-2C 1 40906U 15049H 23040.91588424 .00013628 00000-0 58958-3 0 9996 2 40906 97.4964 47.9506 0010261 245.6251 201.8559 15.22515632409001 XW-2D 1 40907U 15049J 23040.87660975 .00015798 00000-0 65922-3 0 9993 2 40907 97.4941 48.1632 0009719 237.5900 242.2467 15.23711042409064 LILACSAT-2 1 40908U 15049K 23040.88906116 .00007039 00000-0 35192-3 0 9990 2 40908 97.5231 44.4800 0012497 274.5256 172.5199 15.17692445408475 XW-2E 1 40909U 15049L 23040.77462913 .00026625 00000-0 91877-3 0 9995 2 40909 97.4608 53.3424 0008718 202.2346 244.8594 15.29912107409604 XW-2F 1 40910U 15049M 23040.91810199 .00026985 00000-0 94670-3 0 9999 2 40910 97.4698 52.6860 0010613 202.5387 245.3332 15.29352706409380 XW-2B 1 40911U 15049N 23040.91611355 .00015724 00000-0 65931-3 0 9990 2 40911 97.4931 48.7124 0009256 241.7702 205.7156 15.23551602408953 DCBB 1 40912U 15049P 23040.77881714 .00031715 00000-0 97812-3 0 9994 2 40912 97.4280 56.9347 0011331 165.6135 304.2632 15.33464787410012 IO-86 1 40931U 15052B 23040.54869673 .00001404 00000-0 10518-3 0 9994 2 40931 5.9981 277.5907 0013931 288.8662 71.0098 14.77018623398458 ATHENOXAT-1 1 41168U 15077C 23040.86358544 .00074576 00000-0 22639-2 0 9995 2 41168 15.0010 119.9519 0005086 2.9591 144.8263 15.32259876396609 ChubuSat-2 1 41338U 16012B 23040.13560919 .00007132 00000-0 51546-3 0 9999 2 41338 31.0038 315.7329 0013066 340.9385 19.0761 15.02632754383096 ChubuSat-3 1 41339U 16012C 23040.14927537 .00004070 00000-0 29178-3 0 9998 2 41339 31.0133 312.5933 0013177 348.8488 156.3633 15.02598613383091 Horyu-4 1 41340U 16012D 23040.94134412 .00013034 00000-0 87669-3 0 9999 2 41340 31.0037 280.4528 0012291 44.1346 316.0270 15.05501326383511 e-st@r-II 1 41459U 16025D 23040.74980581 .00038395 00000-0 13784-2 0 9991 2 41459 98.1904 229.8812 0125476 180.5453 179.5768 15.21354566373463 AAUSAT4 1 41460U 16025E 23040.52489644 .00072743 00000-0 19323-2 0 9993 2 41460 98.1688 238.7268 0093292 147.1237 267.8388 15.33622061374064 LO-87 1 41557U 16033B 23040.88860973 .00043938 00000-0 95559-3 0 9996 2 41557 97.3861 145.2814 0009213 247.3469 252.4508 15.44150042373884 NuSat2 1 41558U 16033C 23040.89181847 .00049671 00000-0 10176-2 0 9995 2 41558 97.4141 152.3955 0008533 231.0661 265.0015 15.45889643374195 Lapan A3 1 41603U 16040E 23040.86881079 .00003286 00000-0 14844-3 0 9994 2 41603 97.1808 72.2829 0014371 50.3992 75.3280 15.21537575368129 Pratham 1 41783U 16059A 23040.88214268 .00001548 00000-0 30402-3 0 9992 2 41783 97.8860 77.5765 0034108 141.7331 218.6302 14.63648310340359 TY-1 1 41844U 16066D 23040.89087016 .00051031 00000-0 12927-2 0 9991 2 41844 97.3797 57.8976 0011949 146.6777 333.4450 15.39491652348001 CAS-2T 1 41847U 16066G 23040.89710112 .00003390 00000-0 51536-3 0 9999 2 41847 98.5201 110.0133 0361265 219.0201 138.4415 14.39134897328499 EO-88 1 42017U 17008BX 23040.75228242 .00079565 00000-0 15241-2 0 9998 2 42017 97.2352 109.6468 0003722 109.9634 250.2017 15.47746701333585 CAS-4B 1 42759U 17034B 23040.66872797 .00010173 00000-0 55418-3 0 9991 2 42759 43.0178 103.1467 0011071 349.9453 150.3704 15.14461332312287 CAS-4A 1 42761U 17034D 23040.89290419 .00009414 00000-0 51181-3 0 9993 2 42761 43.0168 100.5011 0011711 355.6239 173.4923 15.14594923312329 NIUSat 1 42766U 17036B 23040.88868414 .00033924 00000-0 10928-2 0 9991 2 42766 97.1756 75.5924 0011505 191.9724 168.1247 15.32055591313078 Aalto 1 1 42775U 17036L 23040.65555507 .00024050 00000-0 82523-3 0 9993 2 42775 97.1706 74.7234 0010821 193.6721 166.4229 15.30091783312985 URSA MAIOR 1 42776U 17036M 23040.90991457 .00028725 00000-0 95077-3 0 9991 2 42776 97.1716 76.0055 0010379 190.5301 169.5725 15.31228554313076 Max Valier Sat 1 42778U 17036P 23040.85330966 .00026333 00000-0 83585-3 0 9993 2 42778 97.1763 79.1158 0009116 189.9055 170.2009 15.32604212313189 Pegasus 1 42784U 17036V 23040.83035866 .00043776 00000-0 12255-2 0 9994 2 42784 97.1688 80.6325 0008384 184.4905 175.6266 15.36474003313355 NUDATSat 1 42787U 17036Y 23040.95275582 .00102947 00000-0 18427-2 0 9994 2 42787 97.1665 87.5469 0006693 165.9148 194.2294 15.49587964313636 SUCHAI 1 1 42788U 17036Z 23040.68892361 .00056720 00000-0 13900-2 0 9993 2 42788 97.1676 83.0310 0007593 177.5562 182.5723 15.40516862313563 SKCUBE 1 42789U 17036AA 23040.67107056 .00049053 00000-0 12832-2 0 9997 2 42789 97.1682 82.0694 0007846 179.6193 180.5060 15.38553994313420 VZLUSAT 1 1 42790U 17036AB 23040.87515331 .00104803 00000-0 19142-2 0 9996 2 42790 97.1672 87.3425 0006275 165.1911 194.9526 15.49005607313762 VENTA 1 1 42791U 17036AC 23040.86456638 .00042115 00000-0 11726-2 0 9997 2 42791 97.1688 81.7993 0007815 180.8888 179.2344 15.36657295313414 Robusta 1B 1 42792U 17036AD 23040.63280996 .00055556 00000-0 13892-2 0 9994 2 42792 97.1674 82.8680 0007304 177.7993 182.3287 15.39910663313482 D-SAT 1 42794U 17036AF 23040.69919061 .00010340 00000-0 84263-3 0 9997 2 42794 97.4601 38.8612 0120180 11.1050 349.2780 14.94106331306883 TechnoSat 1 42829U 17042E 23040.80211168 .00004360 00000-0 42694-3 0 9996 2 42829 97.3969 245.8501 0012483 296.6072 63.3869 14.92708986303482 AO-91 1 43017U 17073E 23040.63936323 .00010680 00000-0 76741-3 0 9990 2 43017 97.6488 290.0681 0242086 129.4617 232.8290 14.83768937282258 PICSAT 1 43132U 18004X 23040.75722476 .00055928 00000-0 13389-2 0 9990 2 43132 97.3472 121.8237 0006311 224.4745 135.5996 15.41239783282812 AO-92 1 43137U 18004AC 23040.70224184 .00039074 00000-0 10971-2 0 9991 2 43137 97.3427 119.3271 0006161 235.5070 124.5593 15.36424396282679 TianYi 2 1 43155U 18008A 23040.94303330 .00018554 00000-0 86156-3 0 9991 2 43155 97.3197 96.8653 0015422 39.1561 85.3895 15.19953619279287 Zhou Enlai 1 43156U 18008B 23040.92190413 .00019169 00000-0 89075-3 0 9992 2 43156 97.3243 96.8205 0012982 42.0079 132.1745 15.19954863279207 TianYi 6 1 43158U 18008D 23040.70554281 .00015479 00000-0 75818-3 0 9997 2 43158 97.3211 94.0261 0013628 44.3418 73.7328 15.18164852279045 S-Net D 1 43186U 18014G 23040.89666007 .00007472 00000-0 61782-3 0 9994 2 43186 97.6487 307.0365 0008282 208.4706 151.6066 14.99184505274471 S-Net B 1 43187U 18014H 23040.69695889 .00006890 00000-0 57018-3 0 9993 2 43187 97.6481 306.7800 0008262 209.4324 150.6435 14.99177333274448 S-Net A 1 43188U 18014J 23040.69724004 .00006974 00000-0 57712-3 0 9990 2 43188 97.6486 306.8586 0008247 209.6438 150.4318 14.99177871274442 S-Net C 1 43189U 18014K 23040.69854138 .00006857 00000-0 56756-3 0 9990 2 43189 97.6480 306.7672 0008265 210.6517 149.4224 14.99171854272999 FMN 1 1 43192U 18015A 23040.93844580 .00273278 00000-0 22959-2 0 9992 2 43192 97.5519 201.3998 0011080 262.4808 198.9643 15.68994202280184 Shaonian Xing 1 43199U 18015H 23040.94657194 .00067752 00000-0 13159-2 0 9993 2 43199 97.5359 192.6969 0011610 268.4613 211.3446 15.47329355279976 CP-7 DAVE 1 43615U 18070C 23040.40628668 .02300423 16934-6 12336-2 0 9994 2 43615 92.9884 200.5001 0006634 282.8807 77.1749 16.19912712248157 CubeBel-1 1 43666U 18083E 23040.81548852 .00025718 00000-0 89597-3 0 9999 2 43666 97.3987 72.3376 0010567 204.9105 209.9319 15.29590448237673 Changshagaoxin 1 43669U 18083H 23040.81572531 .00022218 00000-0 83198-3 0 9996 2 43669 97.3952 67.5430 0007097 200.6675 245.6080 15.27277288237454 Ten-Koh 1 43677U 18084G 23040.84288014 .00005742 00000-0 57065-3 0 9996 2 43677 97.9913 178.6470 0014987 206.0176 154.0291 14.92021181233066 PO-101 1 43678U 18084H 23040.79595849 .00001703 00000-0 17050-3 0 9991 2 43678 97.9986 182.4142 0008962 217.9633 142.0978 14.92765620233254 QO-100 1 43700U 18090A 23040.53470604 .00000154 00000-0 00000-0 0 9990 2 43700 0.0111 133.0022 0002590 223.2038 1.4573 1.00273615 15401 Reaktor Hello World 1 43743U 18096AA 23040.69133117 .00052231 00000-0 11655-2 0 9998 2 43743 97.3313 125.5250 0011877 285.5261 74.4675 15.43315832234414 MinXSS-2 1 43758U 18099A 23040.89310840 .00010976 00000-0 90073-3 0 9991 2 43758 97.5946 107.9615 0013801 186.6662 173.4380 14.99310927228650 AO-95 1 43770U 18099N 23040.86687680 .00010454 00000-0 88617-3 0 9993 2 43770 97.5918 105.8668 0013106 191.0738 169.0198 14.98074582228538 RANGE-B 1 43772U 18099Q 23040.73070294 .00013313 00000-0 10936-2 0 9993 2 43772 97.6033 108.0616 0013362 175.2806 184.8546 14.99229254228554 RANGE-A 1 43773U 18099R 23040.74707067 .00005934 00000-0 51673-3 0 9994 2 43773 97.5827 104.1879 0012679 181.7849 178.3330 14.97217436228480 MOVE-II 1 43780U 18099Y 23040.75236343 .00016556 00000-0 13140-2 0 9995 2 43780 97.5971 107.6467 0011926 203.1822 156.8866 15.00516983228606 SNUSat 2 1 43782U 18099AA 23040.89492675 .00008657 00000-0 73452-3 0 9990 2 43782 97.5905 106.4103 0011828 180.8927 179.2276 14.98107580228561 SnugLite 1 43784U 18099AC 23040.88840476 .00009612 00000-0 80628-3 0 9992 2 43784 97.5871 106.0294 0013714 188.5239 171.5753 14.98499228228590 ITASat 1 1 43786U 18099AE 23040.71713531 .00008161 00000-0 69440-3 0 9994 2 43786 97.5927 106.7455 0014521 186.4208 173.6831 14.97985210228556 EAGLET 1 1 43790U 18099AJ 23040.73485697 .00007165 00000-0 61199-3 0 9996 2 43790 97.5936 107.2967 0012539 186.7309 173.3747 14.97900912228297 ESEO 1 43792U 18099AL 23040.71993357 .00004303 00000-0 37925-3 0 9994 2 43792 97.5877 106.0866 0012858 186.7548 173.3503 14.96892544228310 CSIM 1 43793U 18099AM 23040.75569423 .00014276 00000-0 11155-2 0 9998 2 43793 97.5940 108.8156 0017965 187.6103 172.4851 15.01074371228442 Astrocast 0.1 1 43798U 18099AS 23040.71618196 .00014061 00000-0 11346-2 0 9995 2 43798 97.5922 108.2524 0013359 167.2235 192.9329 14.99902071228645 JO-97 1 43803U 18099AX 23040.76667930 .00009964 00000-0 82768-3 0 9990 2 43803 97.5886 106.6661 0014153 189.3455 170.7507 14.98863043228597 Suomi 100 1 43804U 18099AY 23040.73959052 .00009851 00000-0 82246-3 0 9993 2 43804 97.5915 106.4982 0013730 182.7192 177.3959 14.98674845228594 Al Farabi 2 1 43805U 18099AZ 23040.73792565 .00008954 00000-0 72707-3 0 9992 2 43805 97.5943 107.3257 0013560 177.8616 182.2732 14.99778895228638 CHOMPTT 1 43855U 18104G 23040.89194038 .00028167 00000-0 87255-3 0 9994 2 43855 85.0291 252.2828 0015870 75.8849 284.4161 15.33182535231023 ISAT 1 43879U 18111D 23040.73439416 .00011757 00000-0 94605-3 0 9997 2 43879 97.6494 307.0996 0011210 226.3683 133.6611 15.00076770225217 UWE-4 1 43880U 18111E 23040.71987712 .00010587 00000-0 85142-3 0 9990 2 43880 97.6534 307.9412 0012639 242.8961 117.0973 15.00113110225244 Sparrow 1 43881U 18111F 23040.70428354 .00011833 00000-0 94287-3 0 9997 2 43881 97.6636 308.2792 0010603 254.3820 105.6234 15.00458861225253 Lume 1 1 43908U 18111AJ 23040.64040270 .00037540 00000-0 10209-2 0 9991 2 43908 97.1605 286.4185 0013780 310.0032 50.0003 15.37349460229739 FO-99 1 43937U 19003F 23040.79782192 .00050247 00000-0 12715-2 0 9999 2 43937 97.1058 70.6859 0017390 28.0823 332.1358 15.39442664226364 AstroCast 0.2 1 44083U 19018F 23040.90671520 .00041317 00000-0 12079-2 0 9994 2 44083 97.2890 100.8727 0007036 359.5837 0.5399 15.35138671214796 AISTechSat 3 1 44103U 19018AB 23040.71942843 .00032214 00000-0 99203-3 0 9996 2 44103 97.2746 100.6008 0010601 17.9053 342.2561 15.33516147214924 AISat 1 1 44104U 19018AC 23040.84955327 .00026613 00000-0 62806-3 0 9997 2 44104 97.3790 130.4235 0046287 1.6635 358.4756 15.40709458216073 Prox-1 1 44339U 19036A 23040.90083661 .00013562 00000-0 28952-2 0 9999 2 44339 24.0004 132.5124 0009392 307.3799 52.5838 14.57198374192994 Oculus-ASR 1 44348U 19036K 23040.12841314 .00657641 16980-3 11379-2 0 9994 2 44348 28.4865 312.8941 0072175 167.0391 193.2095 15.96134285201427 NO-104 1 44354U 19036R 23040.94100291 .01723094 -73894-5 10141-2 0 9996 2 44354 28.5109 281.6083 0041725 218.6097 141.1534 16.15203211201786 Move-IIb 1 44398U 19038N 23040.84113464 .00051019 00000-0 18890-2 0 9993 2 44398 97.6557 18.9260 0019324 33.1715 327.0730 15.27311333199149 SONATE 1 44400U 19038Q 23040.82695359 .00016073 00000-0 79129-3 0 9997 2 44400 97.6719 16.2614 0023440 39.1413 321.1510 15.17823718198898 BeeSat 9 1 44412U 19038AC 23040.85230198 .00034406 00000-0 14703-2 0 9995 2 44412 97.6649 18.0626 0019595 40.3783 319.8903 15.22603319198738 JAISAT-1 1 44419U 19038F 23040.50358323 .00033612 00000-0 14206-2 0 9991 2 44419 97.6648 18.7196 0018472 38.8385 321.4175 15.23003112199058 Taurus 1 1 44530U 19059C 23040.77714958 .00004474 00000-0 12032-2 0 9996 2 44530 98.5490 146.8273 0013900 121.4145 238.8456 14.48470080180185 Duchifat 3 1 44854U 19089C 23040.65076461 .00009211 00000-0 66696-3 0 9995 2 44854 36.9633 132.0773 0007632 349.0012 124.4840 15.03514418173610 OPS-SAT 1 44878U 19092F 23040.46637760 .00035956 00000-0 13822-2 0 9996 2 44878 97.4766 228.2512 0010235 233.6163 126.4132 15.26280313174258 TO-108 1 44881U 19093C 23040.78669557 .00001312 00000-0 17117-3 0 9996 2 44881 97.8730 121.3882 0015757 129.9117 230.3519 14.82117068169929 FloripaSat 1 1 44885U 19093G 23040.74559257 .00004481 00000-0 53832-3 0 9995 2 44885 97.8783 123.4017 0014979 135.1219 225.1340 14.84400164170033 RS-44 1 44909U 19096E 23040.78676626 .00000018 00000-0 19475-4 0 9997 2 44909 82.5177 72.6004 0218432 124.6882 237.5014 12.79718216145868 BY70-2 1 45857U 20042B 23040.82316932 .00026498 00000-0 31440-2 0 9993 2 45857 97.9352 120.7898 0009433 67.8984 292.3257 14.84419045140603 UPMSat 2 1 46276U 20061E 23040.75623927 .00013389 00000-0 61128-3 0 9999 2 46276 97.3633 111.1257 0002538 76.2136 283.9382 15.20712968134902 AmicalSat 1 46287U 20061R 23040.74623722 .00019403 00000-0 10086-2 0 9992 2 46287 97.4175 109.8892 0002664 153.2393 206.8977 15.16109197134370 SALSAT 1 46495U 20068K 23040.83534357 .00008305 00000-0 57138-3 0 9994 2 46495 97.7578 347.7522 0015723 184.7457 175.3623 15.06063943129890 BY70-3 1 46839U 20079N 23040.94310181 .00166855 00000-0 17673-2 0 9991 2 46839 97.1668 117.0425 0004585 201.5552 268.8226 15.63577319127013 CAPE 3 1 47309U 21002A 23040.91064036 .00044685 00000-0 14151-2 0 9997 2 47309 60.6801 187.6704 0037960 113.3766 247.1326 15.31746842114722 AO-109 1 47311U 21002C 23040.86848028 .00037886 00000-0 12221-2 0 9996 2 47311 60.6828 185.3330 0035678 110.2148 250.2785 15.31309195114739 MiTEE 1 1 47314U 21002F 23040.80405238 .00109681 00000-0 22112-2 0 9998 2 47314 60.6766 168.0335 0030185 100.0039 260.4467 15.45392164115048 ExoCube 2 1 47319U 21002L 23040.94282626 .00037221 00000-0 12217-2 0 9997 2 47319 60.6811 186.7350 0036374 112.1019 248.3940 15.30735848114680 UVSQ-SAT 1 47438U 21006AB 23040.89964558 .00024280 00000-0 11361-2 0 9998 2 47438 97.4047 100.1170 0011255 163.0508 197.1105 15.19685607113283 YUSAT 1 1 47439U 21006AC 23040.88623259 .00028885 00000-0 13021-2 0 9998 2 47439 97.4050 100.4850 0010689 162.1543 198.0070 15.20939247113303 SOMP 2b 1 47445U 21006AJ 23040.89919004 .00022859 00000-0 10876-2 0 9992 2 47445 97.4022 99.5448 0010939 167.6519 192.4986 15.19123715113263 IDEASSat 1 47458U 21006AX 23040.71135745 .00020528 00000-0 98545-3 0 9990 2 47458 97.4104 100.0697 0010126 166.7237 193.4266 15.18844220113225 CubeSX-Sirius-HSE 1 47951U 21022V 23040.97094311 .00010393 00000-0 63522-3 0 9993 2 47951 97.5120 300.5641 0022025 55.8370 73.5751 15.10244243103806 CubeSX-HSE 1 47952U 21022W 23040.94967679 .00010178 00000-0 62138-3 0 9990 2 47952 97.5117 300.5756 0021780 54.4899 76.4562 15.10295397103806 KSU-Cubesat 1 47954U 21022Y 23040.70499297 .00017101 00000-0 10257-2 0 9999 2 47954 97.5120 300.5718 0021446 55.8227 304.5032 15.10820565103504 GRBAlpha 1 47959U 21022AD 23040.79903883 .00010417 00000-0 63498-3 0 9993 2 47959 97.5117 300.4932 0021807 54.1559 19.2759 15.10347449102604 Orbicraft-Zorkiy 1 47960U 21022AE 23040.80547010 .00011391 00000-0 68663-3 0 9994 2 47960 97.5141 300.7763 0021222 54.4985 32.2911 15.10740277103304 STECCO 1 47962U 21022AG 23040.81600214 .00018015 00000-0 98257-3 0 9995 2 47962 97.5120 302.2841 0016846 46.9880 25.7763 15.14302242102720 DO-111 1 47963U 21022AH 23040.28832376 .00084863 00000-0 31815-2 0 9993 2 47963 97.5137 305.2817 0015646 44.2835 315.9653 15.26793793102880 MO-110 1 47964U 21022AJ 23040.71203556 .00028454 00000-0 15211-2 0 9990 2 47964 97.5124 302.6248 0018759 45.4987 314.7775 15.14886667102731 FEES 1 48082U 21022AL 23040.71215209 .00042819 00000-0 21244-2 0 9994 2 48082 97.5125 303.0077 0014978 43.7689 316.4729 15.17477175102469 CSS 1 48274U 21035A 23040.90613051 .00021041 00000-0 24408-3 0 9999 2 48274 41.4740 212.0189 0003206 200.3547 296.4089 15.61276097101927 TUBIN 1 48900U 21059X 23040.76704403 .00009973 00000-0 51457-3 0 9991 2 48900 97.5787 173.9733 0009853 7.5430 102.1325 15.16497331 89846 IT-SPINS 1 49017U 21013G 23040.22358969 .00038793 00000-0 11921-2 0 9997 2 49017 51.5980 342.0267 0007250 198.5136 161.5582 15.33296073 90019 LEDSAT 1 49069U 21073D 23040.73248395 .00014551 00000-0 86110-3 0 9996 2 49069 97.4981 113.9243 0025217 197.8452 162.1896 15.11267676 81637 CUTE 1 49263U 21088D 23040.75864061 .00013457 00000-0 93198-3 0 9992 2 49263 97.5603 108.9209 0018420 341.2733 18.7814 15.05636400 75093 TeikyoSat 4 1 49396U 21102B 23040.88155122 .00003991 00000-0 31207-3 0 9996 2 49396 97.5384 96.7251 0014667 165.2990 194.8664 15.01542465 68662 Z-Sat 1 49399U 21102E 23040.90501227 .00007329 00000-0 53613-3 0 9997 2 49399 97.5039 97.8734 0023110 141.4895 218.7986 15.03670337 68758 KOSEN 1 1 49402U 21102H 23040.84770685 .00008859 00000-0 62385-3 0 9996 2 49402 97.4961 98.1418 0022413 131.2352 229.0810 15.05054007 68796 HO-113 1 50466U 21131B 23040.56036002 .00001029 00000-0 35012-3 0 9996 2 50466 98.5610 122.4907 0005256 153.3121 206.8338 14.38666929 59009 Tevel-3 1 50988U 22002E 23040.75715503 .00017833 00000-0 85017-3 0 9994 2 50988 97.4525 109.0078 0008019 327.4934 180.7994 15.19133083 59375 Tevel-8 1 50989U 22002F 23040.77068365 .00018494 00000-0 88284-3 0 9997 2 50989 97.4535 109.0664 0007880 319.8270 188.0430 15.19080890 59374 Tevel-5 1 50998U 22002Q 23040.76190642 .00018770 00000-0 87876-3 0 9993 2 50998 97.4521 109.2702 0008697 316.1136 192.1909 15.19745550 59392 Tevel-6 1 50999U 22002R 23040.75503464 .00018424 00000-0 86250-3 0 9994 2 50999 97.4528 109.2617 0009031 319.2097 158.0752 15.19748202 59392 Tevel-1 1 51013U 22002AF 23040.76410315 .00018431 00000-0 87925-3 0 9993 2 51013 97.4535 108.9756 0007174 323.8482 186.6573 15.19107620 59372 Grizu-263a 1 51025U 22002AT 23040.19530670 .00059075 00000-0 22291-2 0 9993 2 51025 97.4678 111.1512 0010100 317.5639 42.4818 15.26771076 59412 NO-116 1 51031U 22002AZ 23040.40894042 .00040229 00000-0 17157-2 0 9996 2 51031 97.4636 110.3293 0010861 320.5266 39.5178 15.22756173 59394 IRIS-A 1 51044U 22002BN 23040.85016348 .00015443 00000-0 79983-3 0 9990 2 51044 97.4524 108.4151 0007999 330.6095 29.4687 15.16264664 59345 Tevel-7 1 51062U 22002CG 23040.77180774 .00018375 00000-0 87713-3 0 9993 2 51062 97.4535 109.0479 0007630 321.4254 181.8049 15.19084675 59377 Tevel-4 1 51063U 22002CH 23040.77385969 .00018528 00000-0 88491-3 0 9991 2 51063 97.4542 109.0410 0008272 320.7085 179.0242 15.19059758 59376 Tevel-2 1 51069U 22002CP 23040.75390866 .00017666 00000-0 84244-3 0 9991 2 51069 97.4534 108.9844 0007204 325.1038 155.1680 15.19129830 59373 DELFI-PQ 1 51074U 22002CU 23040.78364419 .00043332 00000-0 17305-2 0 9997 2 51074 97.4767 112.3248 0011367 348.5912 11.5066 15.24951366 59511 SO-115 1 51080U 22002DA 23040.41401913 .00029813 00000-0 13063-2 0 9990 2 51080 97.4778 111.3559 0011824 353.3169 6.7907 15.21894284 59411 SO-114 1 51081U 22002DB 23040.14906428 .00029740 00000-0 13011-2 0 9994 2 51081 97.4780 111.0557 0012108 353.9620 6.1468 15.21944342 59376 OreSat0 1 52017U 22026K 23040.72796284 .00024031 00000-0 11242-2 0 9993 2 52017 97.5106 43.2138 0025686 164.6085 195.5936 15.19454533 50152 Planetum 1 1 52738U 22057G 23040.28848683 .00020364 00000-0 10688-2 0 9997 2 52738 97.5261 156.8196 0008096 73.8630 286.3493 15.15734328 39256 Foresail-1 1 52766U 22057AL 23040.85980284 .00011293 00000-0 58705-3 0 9999 2 52766 97.5361 158.1407 0013252 55.4843 63.1141 15.16162684 39364 SNUGLITE 2 1 52899U 22065F 23040.39208355 .00002674 00000-0 58166-3 0 9990 2 52899 98.0467 188.9791 0007089 254.1659 105.8759 14.58782281 32228 CTIM 1 52950U 22074G 23040.89915565 .00037947 00000-0 12355-2 0 9991 2 52950 45.0041 344.5909 0007752 139.7491 220.4233 15.31258645 34010 SelfieSat 1 53951U 22057BA 23040.87848339 .00025167 00000-0 12962-2 0 9991 2 53951 97.5310 157.7364 0010106 64.5381 295.6896 15.16339865 39350 FO-118 1 54684U 22167C 23040.78877956 .00013099 00000-0 80575-3 0 9991 2 54684 97.5410 179.7385 0014844 53.8816 52.6134 15.10065067 9424 HO-119 1 54816U 21035C 23040.90047963 .00243662 00000-0 14567-2 0 9990 2 54816 41.4773 208.6801 0014752 301.3195 58.6209 15.76188623 8328 /EX